Regional Weather Roundup
Issued by NWS

Home | Current Version | Previous Version | Text Only | Print | Product List | Glossary Off
Versions: 1 2 3 4 5 6 7 8 9 10 11 12 13 14 15 16 17 18 19 20 21 22 23 24 25 26 27 28 29 30 31 32 33 34 35 36 37 38 39 40 41 42 43 44 45 46 47 48 49 50

000
ASUS43 KOAX 040702
RWRNE

WEATHER ROUNDUP FOR NEBRASKA
NATIONAL WEATHER SERVICE OMAHA NE
100 AM CST SUN DEC 04 2016

NOTES: SATELLITE DATA IS BEING USED TO AUGMENT CLOUD COVER ABOVE
       12000 FEET.
       "FAIR" INDICATES FEW OR NO CLOUDS BELOW 12,000 FEET WITH NO
       SIGNIFICANT WEATHER AND/OR OBSTRUCTIONS TO VISIBILITY.

  * THESE STATIONS DO NOT REPORT WEATHER SUCH AS RAIN...SNOW OR FOG.

NEZ001>004-019>022-054>056-040800-
NEBRASKA PANHANDLE

CITY           SKY/WX    TMP DP  RH WIND       PRES   REMARKS
SCOTTSBLUFF    PTCLDY    20  12  71 NW7       30.02R WCI  11
ALLIANCE       CLOUDY    27  17  66 W13       29.98R WCI  16
CHADRON        CLOUDY    28  18  66 SW9       29.99R WCI  19
SIDNEY         CLEAR     23  14  68 W12       30.01S WCI  12
$$

NEZ057>060-069>072-079>082-040800-
SOUTHWEST NEBRASKA

CITY           SKY/WX    TMP DP  RH WIND       PRES   REMARKS
NORTH PLATTE   CLOUDY    25  22  88 CALM      29.99F
IMPERIAL       CLEAR     28  15  58 W10       30.01F WCI  19
LEXINGTON      CLOUDY    31  30  94 CALM      30.00S FOG
MCCOOK         CLOUDY    28  25  88 W13       30.01F WCI  17
OGALLALA       MOCLDY    27  18  68 W7        30.00F WCI  20
$$

NEZ005>010-023>029-035>040-094-040800-
NORTH CENTRAL NEBRASKA

CITY           SKY/WX    TMP DP  RH WIND       PRES   REMARKS
VALENTINE      CLEAR     24  18  77 SW8       29.93S WCI  15
AINSWORTH      MOCLDY    27  21  79 SW8       29.94S WCI  18
BROKEN BOW     PTCLDY    31  29  92 CALM      29.97F
O`NEILL        PTCLDY    32  31  96 SW6       29.95F WCI  26
ORD            MOCLDY    31  28  89 S3        29.97F
THEDFORD       CLEAR     24  19  78 W3        29.96F
$$

NEZ041-046>049-061>064-073>077-083>087-040800-
SOUTH CENTRAL NEBRASKA

CITY           SKY/WX    TMP DP  RH WIND       PRES   REMARKS
GRAND ISLAND   CLOUDY    32  32 100 SW10      30.01F WCI  24
AURORA         CLOUDY    32  32 100 W9        30.01S WCI  24
HASTINGS       CLOUDY    32  31  96 SW6       30.02F WCI  26
HEBRON         CLOUDY    32  32  99 W5        30.04F FOG     WCI  28
HOLDREGE       FOG       32  31  98 SW6       30.00F VSB 3/4 WCI  26
KEARNEY *      CLOUDY    32  28  86 W9        30.01F WCI  24
YORK           CLOUDY    32  32 100 CALM      30.02F FOG
$$

NEZ011>018-030>034-042>045-040800-
NORTHEAST NEBRASKA

CITY           SKY/WX    TMP DP  RH WIND       PRES   REMARKS
NORFOLK        CLOUDY    33  30  88 S9        29.99S WCI  25
ALBION         CLOUDY    33  32  97 SW8       29.99S WCI  26
BLAIR          CLOUDY    33  33  98 S7        30.01F FOG     WCI  27
FREMONT        CLOUDY    33  33 100 S6        30.02F WCI  27
TEKAMAH        CLOUDY    32  31  96 S6        30.03F FOG     WCI  26
WAYNE          CLOUDY    33  32  97 S7        30.00S WCI  27
$$

NEZ050>053-065>068-078-088>093-040800-
SOUTHEAST NEBRASKA

CITY           SKY/WX    TMP DP  RH WIND       PRES   REMARKS
LINCOLN        CLOUDY    33  32  96 S3        30.04F FOG
OMAHA EPPLEY   LGT RAIN  33  30  88 S5        30.04F VSB 1   WCI  29
BEATRICE       LGT RAIN  34  33  99 SW5       30.04F WCI  30
FALLS CITY     RAIN      39  39 100 S5        30.06F FOG
NEBRASKA CITY  RAIN      37  37 100 SW8       30.04F WCI  31
PLATTSMOUTH    LGT RAIN  35  33  92 S12       30.04S WCI  27
$$

NEZ044-045-051>053-067-040800-
OMAHA AREA

CITY           SKY/WX    TMP DP  RH WIND       PRES   REMARKS
OMAHA EPPLEY   LGT RAIN  33  30  88 S5        30.04F VSB 1   WCI  29
BLAIR          CLOUDY    33  33  98 S7        30.01F FOG     WCI  27
FREMONT        CLOUDY    33  33 100 S6        30.02F WCI  27
MILLARD        LGT RAIN  34  32  95 CALM      30.04S
PLATTSMOUTH    LGT RAIN  35  33  92 S12       30.04S WCI  27
WAHOO          FOG       32  32 100 S3        30.03F VSB 1/2
$$




USA.gov is the U.S. government's official web portal to all federal, state and local government web resources and services.